EHI
0 0 1 1 1 0 0 0 0 0 0 0 0 0 0 1 3 6 8 7 7 11 15 16 16 18 19 20 20 17 16 13 8 6 6 6 4 1 0 0 0 0 0 0 0 0 0 0 0
0 0 0 0 0 0 0 0 0 0 0 0 1 1 1 2 4 7 8 7 7 10 13 15 17 19 19 19 18 16 15 12 8 5 5 5 4 2 1 0 0 0 0 0 0 0 0 0 0
0 0 0 0 0 0 0 0 0 0 0 1 2 3 3 4 5 7 8 7 7 8 11 16 19 19 19 18 15 13 13 12 9 5 4 4 3 3 2 1 0 0 0 0 0 0 0 0 0
0 0 0 0 0 0 0 0 0 0 0 2 4 6 7 6 5 6 8 9 8 8 11 16 19 19 19 17 14 13 13 12 10 6 3 3 3 4 4 3 1 1 0 0 0 0 0 0 0
0 0 0 0 0 0 0 0 0 0 1 2 5 7 8 7 5 5 8 10 10 9 10 14 17 19 18 16 14 13 13 13 11 8 5 5 5 5 6 5 4 2 2 1 1 1 0 0 0
0 0 0 0 0 0 0 0 0 1 2 4 6 9 9 7 5 6 9 11 12 10 10 13 16 17 15 13 12 12 12 12 11 9 7 6 6 6 6 6 5 5 4 4 3 2 1 1 1
0 0 0 0 0 0 0 0 1 2 3 5 8 10 11 9 7 7 9 11 11 10 11 13 14 12 10 9 9 10 10 11 10 9 7 6 5 6 6 6 6 6 6 4 3 3 3 2 2
0 0 0 0 0 0 0 0 1 2 3 5 8 10 11 9 8 8 10 11 11 10 10 12 12 9 6 5 5 7 8 8 9 7 5 4 3 4 5 6 6 6 5 4 3 3 3 3 3
0 0 0 0 0 0 0 1 2 2 3 5 7 9 9 7 7 9 10 11 9 8 8 10 12 10 7 5 4 5 5 6 6 4 2 1 2 3 3 4 3 3 4 3 3 3 3 3 3
0 0 0 0 0 0 0 1 2 2 3 5 7 7 6 4 5 8 9 8 6 5 4 6 10 11 10 9 7 6 5 5 5 2 0 0 1 1 1 2 1 2 3 3 3 3 3 3 3
0 0 0 0 0 0 0 1 2 3 3 5 6 5 3 2 2 5 6 5 3 3 3 4 7 10 11 11 9 8 7 7 5 2 0 0 0 0 0 0 1 2 3 3 3 2 2 2 2
0 0 0 0 0 0 0 1 3 3 4 5 5 4 3 1 0 2 2 2 2 2 2 3 5 7 9 10 10 10 10 9 7 4 1 0 0 0 0 0 0 1 2 2 1 1 1 1 1
0 0 0 0 0 0 1 2 3 4 5 5 4 4 3 1 0 0 0 1 2 2 3 3 3 5 7 8 8 9 9 9 8 5 1 0 0 0 0 0 0 0 1 1 0 0 0 0 0
0 0 0 0 0 0 1 2 3 4 4 4 3 2 2 1 0 0 0 1 2 2 2 2 2 3 4 5 5 5 6 7 6 4 1 0 0 0 0 0 0 0 0 0 0 0 0 0 0
0 0 0 0 0 0 0 1 1 2 2 1 1 1 1 0 0 0 0 0 1 1 1 1 1 1 2 3 3 3 3 4 5 3 1 0 0 0 0 0 0 0 0 0 0 0 0 0 0
0 0 0 0 0 0 0 0 0 1 1 0 0 0 0 0 0 0 0 0 0 0 0 0 0 0 1 2 3 3 2 2 3 2 1 0 0 0 0 0 0 0 0 0 0 0 0 0 0
0 0 0 0 0 0 0 0 0 0 0 0 0 0 0 0 0 0 0 0 0 0 0 0 0 0 1 3 3 2 1 1 2 1 0 0 0 0 0 0 0 0 0 0 0 0 0 0 0
0 0 0 0 0 0 0 0 0 0 0 0 0 0 0 0 0 0 0 0 0 0 0 0 0 0 2 3 3 2 1 1 1 0 0 0 0 0 0 0 0 0 0 0 0 0 0 0 0
0 0 0 0 0 0 0 0 0 0 0 0 0 0 0 0 0 0 0 0 0 0 0 0 0 0 1 2 1 1 0 0 0 0 0 0 0 0 0 0 0 0 0 0 0 0 0 0 0
0 0 0 0 0 0 0 0 0 0 0 0 0 0 0 0 0 0 0 0 0 0 0 0 0 0 0 0 0 0 0 0 0 0 0 0 0 0 0 0 0 1 1 1 0 0 0 0 0
0 0 0 0 0 0 0 0 0 0 0 0 0 0 0 0 0 0 0 0 0 0 0 0 0 0 0 0 0 0 0 0 0 0 0 0 0 0 1 1 1 1 2 1 0 0 0 0 0
0 0 0 0 0 0 0 0 0 0 0 0 0 0 0 0 0 0 0 0 0 0 0 0 0 0 0 0 0 0 0 0 0 0 0 0 0 0 1 1 1 1 1 1 0 0 0 0 0
0 0 0 0 0 0 0 0 0 0 0 0 0 0 0 0 0 0 0 0 0 0 0 0 0 0 0 0 0 0 0 0 0 0 0 0 0 0 0 0 0 0 0 0 0 0 0 0 0
0 0 0 0 0 0 0 0 0 0 0 0 0 0 0 0 0 0 0 0 0 0 0 0 0 0 0 0 0 0 0 0 0 0 0 0 0 0 0 0 0 0 0 0 0 0 0 0 0
0 0 0 0 0 0 0 0 0 0 0 0 0 0 0 0 0 0 0 0 0 0 0 0 0 0 0 0 0 0 0 0 0 0 0 0 0 0 0 0 0 0 0 0 0 0 0 0 0
0 0 0 0 0 0 0 0 0 0 0 0 0 0 0 0 0 0 0 0 0 0 0 0 0 0 0 0 0 0 0 0 0 0 0 0 0 0 0 0 0 0 0 0 0 0 0 0 0
0 0 0 0 0 0 0 0 0 0 0 0 0 0 0 0 0 0 0 0 0 0 0 0 0 0 0 0 0 0 0 0 0 0 0 0 0 0 0 0 0 0 0 0 0 0 0 0 0
0 0 0 0 0 0 0 0 0 0 0 0 0 0 0 0 0 0 0 0 0 0 0 0 0 0 0 0 0 0 0 0 0 0 0 0 0 0 0 0 0 0 0 0 0 0 0 0 0
0 0 0 0 0 0 0 0 0 0 0 0 0 0 0 0 0 0 0 0 0 0 0 0 0 0 0 0 0 0 0 0 0 0 0 0 0 0 0 0 0 0 0 0 0 0 0 0 0
0 0 0 0 0 0 0 0 0 0 0 0 0 0 0 0 0 0 0 0 0 0 0 0 0 0 0 0 0 0 0 0 0 0 0 0 0 0 0 0 0 0 0 0 0 0 0 0 0
Wind_Speed
6 5 3 3 6 7 12 9 6 6 6 3 2 4 4 3 2 2 5 5 6 8 8 9 7 7 8 8 7 7 7 7 7 7 7 7 7 6 6 5 5 5 6 6 6 6 5 6 6
4 3 2 4 8 11 12 10 9 7 4 3 2 3 4 2 2 4 4 4 6 7 7 7 7 8 8 8 7 7 7 7 6 6 6 6 6 6 5 5 5 5 5 5 5 4 4 4 4
2 2 3 4 9 13 11 8 7 4 4 4 3 2 2 3 3 3 3 4 5 6 7 8 6 8 8 8 7 7 7 7 6 6 6 6 6 6 5 5 5 4 4 4 4 4 3 3 3
2 3 3 6 12 11 8 5 6 6 4 3 4 3 2 2 2 2 4 4 5 6 6 8 6 8 8 7 7 6 6 7 6 6 5 5 5 6 6 5 4 4 4 4 3 3 3 2 2
2 3 6 8 12 8 6 4 7 8 6 5 5 4 3 1 1 3 4 5 5 6 6 8 7 7 8 8 7 6 6 6 6 6 5 5 5 5 5 5 4 4 4 3 3 3 2 2 1
4 4 7 11 11 7 6 5 7 7 6 5 5 5 3 2 3 4 5 5 5 5 6 7 7 7 7 8 7 7 6 6 6 6 5 5 5 5 5 4 4 3 3 3 2 2 2 1 1
4 5 8 10 10 8 6 5 7 7 6 5 5 5 4 4 4 5 5 5 5 5 5 6 6 7 7 7 6 7 6 5 5 6 6 5 5 4 4 4 3 3 3 3 2 2 2 1 1
2 4 8 9 10 9 6 4 4 5 4 2 3 5 5 5 4 4 5 5 5 4 4 5 5 5 6 6 7 6 6 5 6 6 6 5 4 4 4 3 4 3 3 2 2 2 1 1 1
3 5 8 9 8 7 6 4 1 1 3 2 2 2 1 6 5 5 5 4 4 4 3 4 5 4 4 5 6 5 5 5 4 5 5 3 2 2 2 4 4 4 3 2 2 2 1 1 1
3 6 8 6 5 4 6 5 3 4 4 3 2 1 4 6 7 7 6 5 5 4 3 2 4 4 4 4 4 3 3 3 2 3 3 2 2 2 1 4 3 2 2 1 1 0 1 3 2
2 5 5 4 4 4 4 3 3 5 5 4 4 5 6 6 6 6 5 5 5 4 3 2 3 4 4 3 2 2 2 2 2 3 2 2 2 1 1 0 1 1 1 1 0 2 1 2 2
2 3 4 3 3 3 3 2 2 4 2 2 2 6 7 7 6 6 5 4 4 4 4 3 2 3 3 3 2 2 2 2 2 2 2 1 1 1 1 1 1 1 1 1 1 2 2 2 3
3 1 2 1 1 1 2 2 2 2 2 1 3 6 7 6 6 5 5 4 4 4 3 3 2 3 3 3 2 2 2 2 2 2 2 2 1 1 1 1 1 1 1 1 2 2 2 2 3
2 2 1 1 1 1 1 1 1 2 1 3 4 5 6 5 5 5 5 4 4 4 3 3 2 3 4 3 2 2 2 2 2 2 3 2 1 1 1 1 1 2 2 2 2 2 2 2 2
2 3 2 1 1 1 1 1 2 1 1 3 4 4 5 4 4 4 4 4 4 4 4 3 3 3 3 3 3 2 2 2 2 2 3 2 2 2 1 1 1 2 2 3 2 2 2 2 2
3 3 2 1 1 1 3 3 1 0 2 2 3 4 4 4 4 3 4 4 4 4 4 4 3 2 3 3 3 2 2 2 2 2 2 3 3 2 2 1 1 2 2 2 2 2 2 2 2
2 3 2 1 2 1 3 3 0 1 2 3 3 4 4 4 3 3 3 3 4 4 4 4 3 2 3 3 3 3 2 3 2 2 2 3 3 2 2 2 2 2 2 2 2 2 2 2 2
2 2 2 1 2 1 3 2 1 1 2 3 3 4 4 4 4 3 3 3 3 3 3 3 3 2 3 3 3 2 2 2 2 2 2 3 3 3 2 2 2 2 2 2 2 3 2 2 2
2 2 1 1 3 2 3 3 1 1 2 4 4 4 4 4 3 3 4 4 4 3 3 3 2 2 2 2 1 1 1 1 1 2 3 3 3 3 3 2 3 3 2 2 3 3 3 2 2
2 2 1 2 3 2 2 3 1 1 3 4 4 5 4 4 4 4 4 4 4 4 4 3 2 2 2 1 1 1 1 1 1 1 2 2 2 3 2 2 2 3 2 3 3 3 2 2 2
1 0 0 1 2 1 1 3 3 1 1 2 3 4 4 5 5 5 4 4 3 3 3 3 2 2 2 2 1 1 1 1 1 1 0 1 2 2 2 2 2 2 2 3 3 3 3 2 1
1 2 1 1 2 0 2 2 3 2 2 3 3 4 4 4 4 4 4 4 4 3 3 3 3 3 2 2 1 1 1 0 0 0 0 0 1 1 1 1 2 2 2 2 3 3 3 3 2
1 2 1 1 1 1 0 2 2 2 4 4 4 4 4 3 4 4 4 4 3 3 3 3 3 3 2 2 2 1 1 0 0 0 0 0 0 0 1 1 1 2 2 2 2 3 2 2 3
1 1 2 1 1 2 0 3 2 2 3 3 3 3 3 3 3 3 2 2 2 3 3 3 4 3 3 2 2 2 1 1 0 1 1 1 1 0 1 1 1 2 2 2 3 3 3 3 3
2 1 0 0 1 1 1 3 4 0 1 2 2 2 2 2 2 3 3 2 3 3 3 3 4 3 3 3 2 2 2 1 2 2 1 1 1 1 2 2 2 2 2 3 3 3 3 3 3
1 2 1 2 2 1 2 5 1 2 1 1 1 1 1 2 2 2 2 2 3 3 3 3 3 3 3 3 3 3 2 2 1 2 2 2 2 2 2 3 2 2 3 3 3 3 3 3 3
1 1 2 1 1 3 3 4 3 1 1 1 1 2 2 2 2 2 2 2 2 3 3 3 3 3 3 4 4 4 3 3 3 3 3 3 3 2 3 3 3 3 3 3 3 3 3 4 4
2 1 2 2 2 3 3 4 2 2 3 2 2 2 2 2 1 1 1 1 1 2 2 2 2 3 3 3 4 3 4 4 4 4 4 4 4 3 4 4 4 4 4 4 4 4 4 4 4
2 2 1 1 2 3 3 2 1 2 3 3 3 2 2 1 1 1 1 1 1 1 1 1 2 2 3 3 4 4 4 4 4 5 5 5 4 4 5 5 5 5 5 5 4 5 5 5 5
3 3 3 3 2 3 4 3 3 1 1 2 2 2 1 1 1 0 1 1 1 1 1 2 2 3 3 3 4 4 5 5 5 5 5 5 5 5 6 6 6 6 6 5 6 6 6 6 6
Wind_Direction
312 305 284 234 214 219 225 211 208 189 185 180 174 209 206 198 223 77 86 127 132 142 141 145 140 139 135 131 133 134 133 131 132 132 130 129 128 127 125 123 118 113 110 106 103 97 93 91 90
306 287 233 224 225 218 216 205 202 192 167 155 173 193 189 168 52 86 121 121 136 142 144 140 135 140 134 131 134 140 136 133 131 134 132 130 128 124 120 120 114 113 108 105 101 98 97 96 95
273 263 222 212 225 225 210 192 192 167 168 184 171 194 194 140 117 113 112 136 142 143 144 130 130 140 136 132 133 139 139 134 128 129 131 130 128 123 118 115 106 104 103 104 105 101 99 98 106
226 196 213 223 221 226 225 193 186 168 176 189 186 160 131 71 93 105 127 144 140 144 142 130 125 133 134 129 124 125 132 131 123 124 128 128 124 117 110 104 101 98 96 97 98 100 98 97 105
220 207 204 217 225 219 225 210 192 193 187 177 190 179 155 126 100 127 137 138 128 134 133 135 124 122 125 124 120 113 117 121 117 112 117 122 118 110 103 101 102 103 102 99 94 94 97 97 104
194 210 213 215 213 210 216 211 200 203 192 185 186 180 152 140 141 135 131 131 121 125 131 131 119 115 119 118 115 108 106 113 113 103 95 103 108 106 102 101 101 103 103 98 90 84 85 97 100
213 207 218 218 211 204 202 204 211 204 197 188 186 176 155 158 139 137 127 118 110 113 131 137 137 129 118 110 106 102 94 100 106 105 90 80 90 96 97 93 94 96 90 84 77 70 70 71 70
243 212 212 217 213 207 186 196 232 224 198 157 206 192 174 158 144 135 122 114 104 102 118 134 139 136 134 129 105 100 91 91 99 98 94 91 96 102 96 95 75 73 76 73 67 58 46 38 42
231 222 211 209 215 206 192 205 234 276 175 192 225 289 131 143 160 143 130 118 108 99 115 134 138 132 127 129 121 117 109 96 121 117 110 139 133 113 124 74 60 56 53 55 54 46 29 312 184
224 222 216 216 230 215 211 214 195 191 186 192 175 108 132 158 167 156 154 148 131 110 92 131 139 135 124 122 133 127 124 125 119 116 127 129 101 73 51 98 72 60 44 66 56 25 233 255 241
226 233 218 217 246 227 212 205 201 204 212 217 200 172 161 169 168 161 160 150 133 120 101 86 123 128 123 115 119 121 124 119 106 95 105 108 101 96 66 77 139 161 221 268 189 229 265 294 305
209 251 234 220 257 233 216 192 213 235 258 321 211 166 165 172 171 163 157 140 128 119 111 99 102 115 114 113 109 122 117 105 96 82 70 86 84 62 50 24 2 330 321 322 307 309 314 302 298
207 230 264 266 293 257 173 203 240 284 320 24 124 151 167 170 166 153 145 136 131 120 112 98 97 110 107 111 110 102 106 96 92 75 61 55 70 69 44 17 10 350 337 319 310 298 313 306 308
197 195 211 316 269 268 168 309 258 324 24 106 133 154 157 158 156 145 145 147 137 127 116 101 94 101 102 102 100 87 97 95 77 71 63 52 45 48 23 8 359 352 337 321 303 310 308 304 303
206 167 121 49 296 308 262 278 278 330 110 123 141 147 144 146 143 148 153 151 144 133 123 108 90 95 103 95 88 81 91 92 79 64 58 56 44 32 8 2 357 344 333 325 312 318 302 300 296
200 186 171 33 349 293 234 220 253 76 163 150 149 151 147 145 146 147 146 146 143 135 128 111 97 106 108 99 94 82 85 92 84 73 63 59 48 36 20 2 358 343 331 329 327 317 305 301 298
164 195 197 104 35 236 212 224 167 115 167 166 166 159 154 149 148 147 149 149 149 144 136 123 108 120 108 99 96 84 92 86 80 73 58 54 50 37 34 9 355 341 334 338 337 321 313 306 308
183 198 197 132 19 236 199 207 140 136 177 185 178 170 165 168 166 154 153 149 145 136 129 124 112 118 112 102 96 92 95 90 81 71 56 46 47 37 30 18 0 348 338 340 338 329 320 308 307
180 181 151 16 351 283 217 224 228 154 187 196 191 186 182 178 159 152 152 150 149 137 126 119 111 115 117 110 108 126 113 110 97 74 58 48 40 33 31 18 6 356 346 338 334 330 316 322 319
150 145 76 29 356 302 228 245 243 220 220 221 208 200 197 180 166 161 161 160 163 148 141 137 124 106 103 99 80 54 92 125 93 72 61 45 40 28 17 14 5 359 344 337 342 338 319 322 333
66 214 307 360 352 33 261 219 202 188 213 233 231 220 214 203 190 177 173 170 165 160 156 143 133 123 114 106 115 125 140 149 142 128 82 34 33 34 12 3 354 350 344 342 336 328 313 301 302
98 342 285 218 215 136 308 242 198 209 210 219 215 208 209 205 203 192 186 179 176 170 158 156 153 145 130 135 153 151 152 101 44 350 3 27 29 28 19 348 339 336 328 327 329 319 304 292 283
35 337 309 219 190 196 205 250 213 173 224 218 212 209 205 199 196 196 196 191 178 164 159 161 155 147 149 159 155 159 144 101 76 330 354 328 60 22 5 327 324 321 309 310 310 312 303 294 291
261 218 134 154 223 236 299 262 237 194 229 221 200 191 188 188 187 186 179 171 161 156 159 163 163 164 169 178 176 177 183 185 202 266 300 302 303 297 315 301 304 306 301 300 301 298 293 289 289
323 269 253 199 233 245 65 255 256 353 291 264 233 204 188 177 176 168 165 164 160 163 167 173 177 181 186 190 197 197 201 222 248 265 275 284 286 285 292 282 284 288 287 288 290 287 283 279 278
343 306 300 275 269 282 214 246 268 39 355 322 259 196 170 158 154 158 168 173 172 171 173 176 186 196 198 202 210 216 211 218 244 255 261 262 265 267 276 271 272 276 278 278 277 276 277 277 272
187 123 349 321 299 265 242 267 274 157 164 158 154 149 151 149 148 152 161 177 180 178 182 186 197 209 211 216 217 222 222 226 236 244 250 255 257 263 264 265 270 272 270 271 273 270 273 275 274
352 128 194 226 269 268 267 253 247 201 187 174 171 165 149 140 142 152 162 172 182 189 191 197 215 231 233 230 229 231 233 234 239 242 242 244 250 250 254 257 261 264 264 263 262 265 266 267 271
158 172 197 189 291 279 280 262 119 228 206 200 189 179 176 173 170 167 165 171 175 184 200 214 231 245 247 245 242 239 239 237 239 241 247 250 252 251 252 253 253 254 255 255 254 257 260 262 266
251 228 208 246 236 251 276 279 99 236 262 233 210 195 213 229 240 220 167 168 178 203 225 242 251 255 259 258 254 250 248 244 243 246 248 248 249 248 248 250 249 250 252 252 252 255 255 257 260